Theta_e
323 318 320 320 306 308 303 305 311 308 309 312 318 317 316 319 314 310 335 338 340 341 344 346 346 346 344 344 344 344 345 344 345 344 343 341 342 342 343 343 344 343 342 341 340 340 339 339 338
318 316 320 315 303 299 302 307 307 310 315 318 319 319 317 317 324 327 331 338 341 342 343 344 344 345 343 344 344 344 344 343 341 340 340 340 340 341 343 343 342 341 342 340 339 338 337 336 335
316 314 313 308 305 300 302 307 311 314 316 315 316 321 320 319 325 329 337 340 341 342 343 343 343 344 343 344 345 345 344 342 341 339 338 339 338 338 341 341 341 340 340 340 337 338 336 334 333
316 316 312 305 299 303 303 308 311 313 311 315 318 315 324 329 327 334 338 340 340 340 343 342 344 344 343 344 346 344 343 341 341 339 338 337 338 336 339 341 339 337 338 338 337 337 335 334 332
318 313 305 303 300 303 303 308 314 311 311 315 317 315 319 330 335 337 338 340 338 340 343 343 343 343 344 344 345 345 342 341 341 339 338 338 337 337 335 337 338 336 336 336 336 335 334 333 332
313 312 303 301 300 302 306 310 314 310 312 314 315 318 322 332 332 335 338 338 339 339 342 342 337 339 342 344 344 344 342 341 341 340 340 340 338 337 335 336 337 335 335 334 334 333 333 333 331
309 307 303 302 301 302 306 312 311 310 311 312 320 316 321 326 333 336 337 338 337 340 342 342 339 337 336 338 339 341 341 340 340 340 340 339 338 338 337 336 335 334 334 333 332 332 332 331 330
311 308 301 302 300 301 308 309 309 310 310 320 323 313 318 326 332 335 334 335 335 338 341 341 338 336 338 339 331 334 336 336 337 336 333 331 332 334 334 332 334 333 332 332 331 331 330 330 328
309 304 300 302 300 303 308 306 308 312 315 317 319 319 325 330 331 331 328 330 330 334 337 341 338 335 336 337 333 331 330 330 329 329 327 329 333 333 332 330 333 333 332 331 330 328 326 325 325
306 303 303 304 303 303 307 309 307 310 312 313 316 323 329 329 328 326 324 325 325 329 335 340 339 335 334 334 336 335 334 333 335 336 335 334 333 332 331 325 324 325 328 330 328 326 323 325 327
302 305 305 301 303 303 304 304 309 309 308 312 313 320 323 326 326 324 325 325 327 330 333 336 338 337 335 332 334 334 332 331 333 334 334 333 331 331 330 329 328 327 322 328 327 327 326 326 326
300 299 300 303 301 302 302 305 305 309 309 312 317 324 324 323 324 326 324 326 326 328 330 334 337 336 336 334 332 331 330 330 329 330 332 331 330 329 328 327 327 328 328 327 328 328 327 326 326
303 302 302 303 302 302 301 302 305 306 307 311 318 324 323 323 325 328 328 326 326 326 328 331 335 334 335 335 333 330 329 329 329 329 331 331 329 328 327 328 328 329 330 329 329 328 328 328 326
305 302 303 303 303 300 300 300 302 307 311 314 319 322 324 325 326 326 328 325 324 325 326 328 331 333 332 330 334 330 329 329 330 331 332 331 331 330 329 329 329 330 330 330 330 329 328 328 327
306 301 302 301 298 298 300 298 299 304 311 313 317 321 323 326 327 325 328 325 323 324 328 330 332 331 330 330 331 331 330 328 330 331 332 331 330 329 329 330 330 330 330 329 329 328 328 328 326
304 304 297 299 298 297 300 299 302 304 309 310 315 319 321 323 326 327 330 327 326 324 325 328 330 331 331 331 333 332 332 331 330 331 333 331 330 329 329 329 329 330 329 329 329 329 327 327 327
301 296 299 302 300 297 298 297 299 302 307 308 313 316 320 322 324 327 329 329 328 326 325 326 328 329 330 331 331 333 332 332 331 333 334 333 330 327 329 330 330 330 328 324 324 326 323 324 327
293 297 298 300 300 297 299 298 302 300 304 306 310 315 317 320 322 327 329 331 332 331 327 325 327 328 329 329 330 330 331 331 332 332 334 334 331 327 327 330 331 328 325 323 324 322 326 324 324
300 300 299 298 303 298 298 301 304 307 300 303 306 311 314 317 322 326 329 331 331 332 331 329 326 327 328 327 326 328 327 329 330 332 332 331 330 329 327 327 327 328 327 326 326 323 322 321 324
301 299 300 301 296 296 298 298 302 303 301 302 304 307 312 315 319 322 325 328 330 331 332 332 331 329 329 329 330 330 330 331 332 333 331 330 330 330 328 328 326 328 326 324 323 321 320 320 322
296 298 296 295 293 294 294 297 298 300 301 301 301 304 308 313 315 318 322 324 327 329 331 332 333 333 332 332 331 331 333 332 331 331 331 331 331 330 330 329 330 327 327 327 323 322 321 320 318
289 294 293 292 291 291 297 292 299 300 301 297 300 301 302 307 314 317 318 321 324 326 329 332 333 333 333 333 331 329 328 327 330 331 331 332 333 331 332 330 330 330 331 327 324 322 322 321 317
292 297 294 292 290 289 290 288 296 296 296 300 298 301 302 303 307 311 316 319 321 325 327 328 330 332 334 333 332 331 329 332 333 332 332 331 330 331 331 330 330 329 328 325 321 320 320 320 319
295 293 292 290 289 285 291 289 293 295 295 298 301 301 301 302 303 305 310 314 316 320 323 326 326 329 332 333 332 332 331 331 331 331 330 325 324 326 329 328 326 322 319 318 317 316 316 316 316
294 291 283 282 282 284 285 287 293 297 298 300 301 303 303 303 303 302 302 301 307 312 314 319 323 324 328 331 331 332 332 332 331 331 329 324 318 316 317 318 317 314 312 310 309 309 311 312 309
292 293 284 279 280 285 282 283 291 296 301 299 299 301 301 301 301 301 302 303 304 305 307 311 314 320 324 328 329 331 330 330 332 332 330 326 323 322 314 314 313 307 305 303 304 304 304 304 301
290 288 290 284 279 281 286 289 293 296 294 295 296 295 298 300 299 299 300 301 302 303 305 307 309 312 318 323 326 326 327 326 327 329 330 326 322 313 307 306 303 300 299 300 302 300 297 298 298
294 296 286 287 280 278 284 284 288 292 294 295 295 296 298 298 298 299 298 300 301 303 305 308 309 310 311 314 323 323 325 326 326 325 322 318 312 307 305 300 300 296 296 298 298 296 296 295 295
290 289 290 291 287 282 281 287 293 293 295 296 297 296 298 298 299 299 300 300 302 303 304 307 308 309 308 308 309 318 324 324 320 316 311 308 304 303 303 302 296 295 294 295 295 295 294 293 292
293 291 291 286 283 285 283 286 293 294 294 294 296 296 297 297 298 299 300 300 300 301 303 305 307 308 309 309 310 310 313 317 314 316 310 305 300 302 296 298 294 294 294 294 293 292 292 291 290
Wind_Speed
5 5 2 2 4 3 4 4 0 6 6 2 3 1 2 5 3 4 8 6 12 12 12 12 10 11 12 11 11 11 11 11 14 16 16 15 15 16 16 17 18 15 17 19 19 19 19 19 18
6 3 1 1 4 5 4 4 6 5 5 8 7 4 3 4 3 8 12 11 13 12 12 12 9 11 10 10 11 11 12 12 14 14 15 15 16 15 15 17 17 16 16 18 18 18 18 17 17
3 3 3 1 2 3 1 6 8 8 8 4 5 3 2 4 3 13 9 15 13 12 11 12 10 10 9 10 11 13 13 14 14 14 16 16 16 14 16 16 17 15 15 16 17 17 17 17 17
3 3 3 4 1 2 3 5 6 12 2 2 4 6 4 2 9 6 16 15 13 12 12 12 11 11 11 10 13 15 14 13 13 14 15 17 15 14 11 15 17 16 15 15 16 16 16 16 16
2 3 4 2 2 1 2 1 11 11 6 6 4 6 4 6 3 13 16 13 12 12 13 13 10 11 10 9 13 15 15 13 13 14 15 15 15 13 13 13 15 15 15 15 15 14 14 14 14
4 3 5 8 5 3 2 5 10 6 5 6 4 9 7 4 10 15 14 12 10 11 12 13 9 8 9 9 9 13 15 14 12 12 13 15 14 13 14 12 14 14 14 13 14 14 14 13 13
4 4 6 3 5 3 3 9 11 7 7 6 7 8 4 6 11 13 12 11 9 10 11 11 11 10 8 9 7 8 11 12 10 13 13 14 11 12 13 12 12 13 12 12 12 12 13 12 11
3 3 5 5 7 4 7 9 4 6 5 4 4 5 6 10 14 12 11 10 9 9 9 11 10 10 10 9 8 7 8 10 11 13 12 11 11 10 10 10 11 12 11 11 11 10 10 11 10
1 6 8 8 6 4 10 9 5 2 7 2 4 1 2 18 16 13 10 9 9 8 9 10 10 9 8 9 7 8 7 9 10 10 9 7 7 8 8 10 9 11 10 10 9 9 8 7 8
2 7 9 0 2 1 9 9 12 8 8 5 7 6 14 16 17 17 14 12 12 12 12 9 10 10 10 7 8 7 6 5 6 6 6 5 6 5 7 8 9 8 8 8 7 7 4 2 3
2 10 4 2 2 1 6 6 6 8 9 10 13 14 16 16 15 16 15 14 14 13 11 8 10 10 10 8 6 4 4 4 4 6 5 5 5 4 3 4 3 4 1 3 3 3 3 5 3
6 4 2 2 3 4 5 4 6 12 1 1 7 18 19 19 17 18 16 15 14 15 13 12 9 10 9 7 6 6 5 4 4 4 5 4 4 4 4 3 3 3 2 3 2 3 3 3 3
9 11 5 2 3 2 4 5 5 11 3 1 12 18 20 19 18 16 15 13 13 13 13 14 11 10 9 7 7 7 6 6 6 6 5 3 3 3 3 3 3 2 2 2 2 2 1 2 3
3 6 3 2 5 1 2 2 4 9 10 7 14 17 19 20 21 16 16 16 16 14 13 10 13 11 9 6 6 5 5 6 6 5 5 5 3 3 3 3 3 2 1 1 1 1 1 2 3
5 6 4 4 2 3 2 4 10 2 9 10 13 14 16 18 18 19 17 17 16 14 15 15 13 11 11 11 9 6 5 6 6 5 6 6 5 5 4 3 3 3 2 2 2 1 1 2 2
6 1 7 3 5 3 2 9 2 6 9 14 13 13 14 17 20 17 17 16 15 14 15 15 13 14 12 10 8 7 6 6 6 5 5 7 6 5 5 3 4 4 3 3 2 1 2 2 2
1 5 14 9 2 4 1 8 3 3 8 11 11 12 14 15 17 17 16 16 15 15 15 15 15 15 14 12 8 8 8 7 6 6 6 9 8 7 6 4 4 5 3 2 2 2 2 3 2
7 7 4 12 3 3 9 13 14 4 8 12 10 12 13 16 18 17 18 18 16 15 15 15 14 15 14 9 8 7 7 7 7 7 7 9 7 8 6 5 5 5 4 3 3 2 3 1 3
11 10 12 4 3 1 8 17 20 17 8 12 13 13 14 16 15 16 17 16 16 16 16 17 16 16 12 10 9 8 9 9 8 8 10 8 7 9 7 5 5 7 6 5 5 2 3 2 2
15 13 11 5 5 6 8 17 15 17 12 14 15 14 16 14 15 16 17 17 17 17 18 17 17 17 14 11 10 8 9 9 10 8 8 9 10 9 8 7 6 7 5 6 5 4 2 1 1
7 14 10 3 3 3 4 17 19 14 15 15 14 15 13 17 18 17 18 19 18 20 19 18 19 18 16 16 10 8 7 5 6 6 8 9 11 11 10 9 7 7 7 6 6 6 6 4 1
7 6 9 7 3 5 9 9 12 14 21 14 15 16 16 17 17 16 18 18 20 19 18 19 19 19 17 18 14 15 12 11 10 10 8 9 14 10 10 8 9 8 7 6 5 4 5 4 4
4 8 5 1 2 2 7 7 8 3 14 18 15 16 18 16 19 19 20 19 19 17 17 17 19 19 19 17 17 13 14 10 9 9 11 10 7 8 10 8 7 5 4 4 5 5 5 4 5
13 8 7 3 2 8 11 11 10 11 15 17 17 17 17 19 18 18 16 13 16 15 15 16 19 19 19 18 19 19 18 15 11 10 9 7 6 5 9 9 7 6 5 6 5 4 5 4 3
5 12 4 2 5 8 2 12 15 10 11 16 17 17 16 18 14 14 15 13 16 17 16 15 17 19 19 19 19 20 20 18 18 15 11 12 7 4 7 7 8 6 6 6 5 6 6 6 6
15 10 4 7 6 3 2 12 5 11 14 11 11 10 6 8 10 11 14 12 12 12 14 17 17 18 18 19 20 16 18 12 13 14 11 10 11 11 10 8 9 9 8 6 5 6 6 8 7
9 9 4 1 3 2 5 7 10 8 9 10 13 8 13 9 9 10 9 13 14 13 15 16 17 16 18 18 16 16 15 13 11 14 13 10 9 8 8 9 11 8 9 8 9 6 8 8 7
12 15 6 4 5 6 5 6 10 3 11 9 9 10 10 7 7 9 10 11 11 13 14 15 17 17 15 15 15 13 12 12 11 10 11 12 10 13 13 11 12 9 8 10 11 9 9 9 6
11 12 6 5 5 4 3 4 4 7 5 8 7 6 7 7 7 7 7 6 8 9 11 13 14 14 12 12 13 14 13 11 10 9 9 10 11 13 14 15 11 12 12 11 11 10 11 10 9
17 13 16 7 7 5 2 8 2 4 2 3 4 5 5 6 7 7 7 6 5 7 9 11 12 12 11 10 11 11 11 11 10 13 13 12 12 12 12 13 13 12 12 12 12 11 10 11 11
Wind_Direction
331 340 286 213 226 243 142 146 120 150 161 96 114 220 91 23 353 31 143 127 150 143 139 144 120 123 120 122 105 104 104 96 96 95 89 87 92 90 82 83 80 85 87 86 81 77 74 71 70
346 342 256 186 245 226 133 144 177 147 109 128 119 130 133 88 62 123 143 155 154 145 144 133 121 120 121 115 119 106 104 106 100 98 101 101 98 98 93 88 89 79 81 88 82 78 76 72 69
340 340 266 237 248 264 128 171 143 125 129 161 132 13 85 98 108 149 122 153 154 146 139 123 125 124 119 110 133 113 100 99 105 111 107 104 98 98 90 91 89 84 80 86 85 81 77 71 70
333 202 157 246 172 97 14 145 147 147 142 153 143 116 110 327 150 141 144 152 153 145 141 134 131 124 115 108 129 116 113 109 109 109 105 100 98 102 85 81 88 86 84 85 84 79 76 74 73
338 244 205 179 190 150 227 235 172 164 141 151 184 130 86 123 130 142 152 152 153 152 139 142 134 127 126 119 125 126 120 117 115 106 108 107 107 101 105 93 95 91 86 85 82 78 78 79 75
231 274 217 217 206 168 208 176 171 178 149 138 167 134 124 108 149 148 153 154 159 151 148 134 129 129 134 127 111 119 124 121 120 110 103 117 107 110 104 94 90 92 89 87 83 79 77 77 73
260 231 219 201 205 203 170 155 178 176 153 173 127 148 113 167 155 147 152 147 161 151 152 138 143 134 95 94 90 91 103 117 120 104 89 82 87 96 97 93 99 97 91 86 83 79 77 76 73
183 245 178 216 207 186 145 166 174 188 154 115 172 172 166 171 155 144 147 148 150 167 155 142 143 148 144 134 82 75 86 85 78 97 89 86 85 89 90 103 89 94 91 86 80 78 76 71 64
113 211 213 215 189 155 158 177 152 112 137 170 147 81 101 143 150 146 150 158 164 160 155 156 148 143 141 140 119 113 86 78 94 100 99 133 117 117 114 74 89 93 93 92 84 80 78 87 80
190 216 207 197 195 154 176 202 153 174 158 178 161 95 137 151 158 161 172 174 176 172 165 167 161 149 146 144 152 141 136 135 121 131 132 115 115 94 96 84 76 78 81 92 85 81 112 219 62
22 228 139 121 181 246 180 209 171 174 196 196 191 155 159 163 168 174 183 181 182 174 170 173 171 162 157 153 152 155 151 143 140 141 136 122 127 136 111 124 128 110 121 123 138 111 59 53 38
124 219 138 28 314 167 171 157 198 212 178 114 169 159 164 174 178 182 182 189 187 175 182 169 180 175 169 162 171 164 162 158 159 156 153 153 152 149 146 139 130 127 102 111 82 72 62 66 58
199 168 150 162 330 210 138 207 222 220 183 136 153 161 176 183 187 190 185 193 188 183 188 187 178 181 181 189 176 172 171 177 167 169 168 171 154 149 154 133 133 119 131 116 112 98 66 40 29
132 151 156 70 340 50 209 184 218 221 166 156 167 173 180 191 191 186 195 192 191 186 191 190 196 189 178 187 211 182 175 172 177 175 173 178 173 168 162 155 149 152 160 136 140 33 13 10 360
102 179 203 185 152 67 312 192 225 176 180 179 188 182 184 193 195 197 196 194 193 191 184 187 192 190 200 194 196 195 190 187 189 184 179 181 184 181 183 180 184 175 172 199 211 218 293 311 341
207 239 212 138 140 98 271 238 239 183 188 200 194 191 188 195 203 203 199 197 193 191 189 186 185 190 198 202 205 195 190 199 196 194 190 192 190 184 192 196 196 189 196 220 233 278 281 304 331
191 188 220 217 45 125 183 285 25 222 209 224 205 199 197 198 210 209 201 200 195 192 191 190 194 193 195 198 200 202 203 205 207 204 201 197 195 192 191 210 214 198 203 195 216 215 304 313 324
155 198 207 220 147 178 219 247 273 240 239 238 221 212 212 207 207 205 203 199 200 195 195 193 195 200 197 195 200 203 202 206 208 211 210 204 197 198 211 215 209 200 206 203 200 226 210 276 315
159 189 214 183 185 185 241 251 258 271 246 246 231 221 218 217 204 205 207 208 203 199 199 200 197 199 192 193 191 204 207 203 205 215 203 200 202 203 202 217 212 198 212 220 203 207 214 211 303
165 181 208 216 160 207 252 263 256 259 250 248 242 229 224 217 213 205 205 206 212 207 205 204 203 200 198 198 198 200 200 212 208 203 199 196 204 197 200 204 206 211 207 209 193 190 178 183 313
178 197 179 183 185 216 292 274 251 245 236 251 240 244 236 219 217 209 205 207 210 214 209 207 206 205 203 206 199 203 200 201 201 197 209 210 205 199 200 202 200 202 209 211 190 195 197 183 121
156 146 120 107 191 239 200 273 234 234 230 214 241 229 231 222 225 214 211 210 214 215 213 214 209 209 207 202 201 202 204 206 213 205 196 199 202 196 206 201 202 208 203 203 177 177 198 185 168
127 141 138 191 234 292 203 258 260 242 235 229 223 234 233 228 222 213 212 213 210 210 214 213 214 212 208 204 204 203 212 215 218 216 202 196 181 192 203 198 201 176 176 164 162 173 181 185 179
141 99 45 52 339 255 224 226 240 225 223 229 227 214 224 224 229 228 216 213 215 211 211 211 215 216 213 211 211 211 213 213 210 206 199 185 172 177 194 182 172 141 142 151 150 153 151 162 154
111 135 102 178 200 244 65 222 248 248 240 232 228 220 209 220 218 224 219 205 215 209 205 208 211 217 213 213 214 216 217 216 218 214 208 177 170 182 185 161 158 150 141 132 136 142 142 152 143
168 172 150 189 200 243 142 234 250 254 243 248 250 248 230 231 222 214 215 222 232 220 207 205 206 215 210 213 218 217 219 222 221 220 211 205 187 186 159 158 157 140 136 130 134 135 130 128 132
164 204 121 58 113 269 227 275 251 269 270 263 260 274 258 247 242 230 221 222 222 216 215 213 211 212 209 214 216 216 216 213 219 218 211 202 180 164 149 148 142 141 135 150 144 138 136 129 132
187 155 168 204 209 236 237 271 254 263 243 240 249 243 250 245 249 248 232 223 220 220 217 209 210 207 205 207 209 211 208 207 208 199 191 182 169 159 160 149 154 148 140 155 137 140 144 138 134
158 181 202 177 221 244 284 256 242 279 271 259 270 238 238 264 258 262 276 252 239 227 217 208 206 197 194 199 200 208 209 199 181 178 175 169 158 164 170 163 159 154 151 149 146 152 152 147 142
206 197 185 197 182 235 38 264 230 167 229 275 268 284 302 302 291 276 267 258 232 230 220 201 201 197 197 199 204 210 208 196 185 191 180 170 165 172 158 162 157 159 149 148 155 154 158 154 154